Regional Weather Roundup
Issued by NWS

Home | Current Version | Previous Version | Graphics & Text | Print | Product List | Glossary On
Versions: 1 2 3 4 5 6 7 8 9 10 11 12 13 14 15 16 17 18 19 20 21 22 23 24 25 26 27 28 29 30 31 32 33 34 35 36 37 38 39 40 41 42 43 44 45 46 47 48 49 50
000
ASUS43 KOAX 210910
RWRNE

WEATHER ROUNDUP FOR NEBRASKA
NATIONAL WEATHER SERVICE OMAHA NE
400 AM CDT SAT APR 21 2018

NOTES: SATELLITE DATA IS BEING USED TO AUGMENT CLOUD COVER ABOVE
       12000 FEET.
       "FAIR" INDICATES FEW OR NO CLOUDS BELOW 12,000 FEET WITH NO
       SIGNIFICANT WEATHER AND/OR OBSTRUCTIONS TO VISIBILITY.


NEZ001>004-019>022-054>056-211000-
NEBRASKA PANHANDLE

CITY           SKY/WX    TMP DP  RH WIND       PRES   REMARKS
SCOTTSBLUFF    CLOUDY    34 N/A N/A NE3       30.20F HAZE
ALLIANCE       LGT RAIN  36  36 100 SE12      30.20F WCI  28
CHADRON        CLOUDY    38  35  89 S3        30.24F
GORDON         CLOUDY    38  37  93 SE5       30.24F WCI  35
KIMBALL        DRZL/FOG  33  33 100 E8        30.16S VSB 1   WCI  26
SIDNEY         CLOUDY    35  33  92 SE10      30.17F FOG     WCI  27
$$

NEZ057>060-069>072-079>082-211000-
SOUTHWEST NEBRASKA

CITY           SKY/WX    TMP DP  RH WIND       PRES   REMARKS
NORTH PLATTE   CLOUDY    39  37  92 SE15      30.24S WCI  31
IMPERIAL       CLOUDY    39  39 100 E12       30.19R WCI  32
LEXINGTON      CLOUDY    41  39  91 E9        30.25F
MCCOOK         CLOUDY    41  40  96 E14       30.19F
OGALLALA       DRIZZLE   39  37  93 E13       30.22S WCI  32
$$

NEZ005>010-023>029-035>040-094-211000-
NORTH CENTRAL NEBRASKA

CITY           SKY/WX    TMP DP  RH WIND       PRES   REMARKS
VALENTINE      LGT RAIN  41  38  89 SE6       30.28F
AINSWORTH      DRIZZLE   40  38  89 SE9       30.29S WCI  35
BROKEN BOW     LGT RAIN  41  38  89 E8        30.27S
O`NEILL        CLOUDY    44  37  75 SE5       30.30F
ORD            LGT RAIN  41  40  96 CALM      30.28F
THEDFORD       DRIZZLE   40  38  95 E6        30.27F
$$

NEZ041-046>049-061>064-073>077-083>087-211000-
SOUTH CENTRAL NEBRASKA

CITY           SKY/WX    TMP DP  RH WIND       PRES   REMARKS
GRAND ISLAND   LGT RAIN  43  39  86 SE5       30.30R
AURORA         DRIZZLE   44  38  79 S10       30.29R
HASTINGS       CLOUDY    42  40  92 E8        30.27F
HEBRON         CLOUDY    44  42  94 N3        30.25S
HOLDREGE       CLOUDY    41  40  99 E10       30.24F
KEARNEY        LGT RAIN  41  39  93 E9        30.27F
YORK           LGT RAIN  45  39  81 S12       30.30R
$$

NEZ011>018-030>034-042>045-211000-
NORTHEAST NEBRASKA

CITY           SKY/WX    TMP DP  RH WIND       PRES   REMARKS
NORFOLK        LGT RAIN  43  37  79 SE6       30.30F
ALBION         DRIZZLE   44  39  82 NE7       30.28F
BLAIR          CLOUDY    47  32  57 NE9       30.29F
COLUMBUS       CLOUDY    46  35  65 NE13      30.29F
FREMONT        CLOUDY    49  32  52 NE9       30.30S
TEKAMAH        CLOUDY    46  35  65 N9        30.30F
WAYNE          CLOUDY    41  38  89 CALM      30.32F
$$

NEZ050>053-065>068-078-088>093-211000-
SOUTHEAST NEBRASKA

CITY           SKY/WX    TMP DP  RH WIND       PRES   REMARKS
LINCOLN        CLOUDY    52  24  33 SE14      30.28S
OMAHA EPPLEY   CLOUDY    50  28  42 E7        30.30F
BEATRICE       CLOUDY    49  30  47 E5        30.25S
FALLS CITY     CLOUDY    48  25  40 E9        30.25F
NEBRASKA CITY  CLOUDY    49  28  44 E7        30.28F
PLATTSMOUTH    CLOUDY    49  25  38 E7        30.30S
$$

NEZ044-045-051>053-067-211000-
OMAHA AREA

CITY           SKY/WX    TMP DP  RH WIND       PRES   REMARKS
OMAHA EPPLEY   CLOUDY    50  28  42 E7        30.30F
BLAIR          CLOUDY    47  32  57 NE9       30.29F
FREMONT        CLOUDY    49  32  52 NE9       30.30S
MILLARD        CLOUDY    52  28  39 E6        30.30S
OFFUTT AFB     CLOUDY    50  26  39 E10       30.30S
PLATTSMOUTH    CLOUDY    49  25  38 E7        30.30S
WAHOO          CLOUDY    48  29  48 NE5       30.29R
$$




USA.gov is the U.S. government's official web portal to all federal, state and local government web resources and services.